カタログに戻る

STARLINK-6353

運用中通信VLEO
NORAD 57056·PAYLOAD·🇺🇸 United States

打ち上げ Jun 22, 2023 から Vandenberg Space Force Base

Loading…

次のパス (今後24時間)

TLE

最新Source: CelesTrak SupGP

元期: Sep 15, 2026, 03:07 UTC

1 57056C 23088J   26258.13034722  .00045346  00000+0  16426-2 0  2589
2 57056  43.0001 120.4939 0001716 260.4251 275.2324 15.27551370    18

AllMySatでSTARLINK-6353をリアルタイム追跡

Download on the App Store